#Datum;Uhrzeit;WR;Pac;DaySum;Status;WR;Pac;DaySum;Status;Pdc1;Udc;Temp;WR;Pac;DaySum;Status;Pdc1;Udc;Temp;WR;Pac;DaySum;Status;Pdc1;Udc;Temp;WR;Pac;DaySum;Status;Pdc1;Pdc2;Udc1;Udc2;Temp;WR;Pac;DaySum;Status;Pdc1;Pdc2;Udc1;Udc2;Temp;WR;Pac;DaySum;Status;Pdc1;Udc;Temp;WR;Pac;DaySum;Status;Pdc1;Udc;Temp;WR;Pac;DaySum;Status;Pdc1;Udc;Temp
02.05.21;23:55:00;1;651;12196;0;2;0;10470;0;0;0;0;3;0;6531;0;0;0;0;4;0;9023;0;0;0;0;5;0;20792;0;0;0;0;0;0;6;0;15120;0;0;0;0;0;0;7;0;11327;0;0;0;0;8;0;11356;0;0;0;0;9;0;6106;0;0;0;0
02.05.21;23:50:00;1;623;12141;0;2;0;10470;0;0;0;0;3;0;6531;0;0;0;0;4;0;9023;0;0;0;0;5;0;20792;0;0;0;0;0;0;6;0;15120;0;0;0;0;0;0;7;0;11327;0;0;0;0;8;0;11356;0;0;0;0;9;0;6106;0;0;0;0
02.05.21;23:45:00;1;671;12089;0;2;0;10470;0;0;0;0;3;0;6531;0;0;0;0;4;0;9023;0;0;0;0;5;0;20792;0;0;0;0;0;0;6;0;15120;0;0;0;0;0;0;7;0;11327;0;0;0;0;8;0;11356;0;0;0;0;9;0;6106;0;0;0;0
02.05.21;23:40:00;1;767;12032;0;2;0;10470;0;0;0;0;3;0;6531;0;0;0;0;4;0;9023;0;0;0;0;5;0;20792;0;0;0;0;0;0;6;0;15120;0;0;0;0;0;0;7;0;11327;0;0;0;0;8;0;11356;0;0;0;0;9;0;6106;0;0;0;0
02.05.21;23:35:00;1;678;11969;0;2;0;10470;0;0;0;0;3;0;6531;0;0;0;0;4;0;9023;0;0;0;0;5;0;20792;0;0;0;0;0;0;6;0;15120;0;0;0;0;0;0;7;0;11327;0;0;0;0;8;0;11356;0;0;0;0;9;0;6106;0;0;0;0
02.05.21;23:30:00;1;687;11913;0;2;0;10470;0;0;0;0;3;0;6531;0;0;0;0;4;0;9023;0;0;0;0;5;0;20792;0;0;0;0;0;0;6;0;15120;0;0;0;0;0;0;7;0;11327;0;0;0;0;8;0;11356;0;0;0;0;9;0;6106;0;0;0;0
02.05.21;23:25:00;1;760;11855;0;2;0;10470;0;0;0;0;3;0;6531;0;0;0;0;4;0;9023;0;0;0;0;5;0;20792;0;0;0;0;0;0;6;0;15120;0;0;0;0;0;0;7;0;11327;0;0;0;0;8;0;11356;0;0;0;0;9;0;6106;0;0;0;0
02.05.21;23:20:00;1;663;11794;0;2;0;10470;0;0;0;0;3;0;6531;0;0;0;0;4;0;9023;0;0;0;0;5;0;20792;0;0;0;0;0;0;6;0;15120;0;0;0;0;0;0;7;0;11327;0;0;0;0;8;0;11356;0;0;0;0;9;0;6106;0;0;0;0
02.05.21;23:15:00;1;636;11738;0;2;0;10470;0;0;0;0;3;0;6531;0;0;0;0;4;0;9023;0;0;0;0;5;0;20792;0;0;0;0;0;0;6;0;15120;0;0;0;0;0;0;7;0;11327;0;0;0;0;8;0;11356;0;0;0;0;9;0;6106;0;0;0;0
02.05.21;23:10:00;1;573;11685;0;2;0;10470;0;0;0;0;3;0;6531;0;0;0;0;4;0;9023;0;0;0;0;5;0;20792;0;0;0;0;0;0;6;0;15120;0;0;0;0;0;0;7;0;11327;0;0;0;0;8;0;11356;0;0;0;0;9;0;6106;0;0;0;0
02.05.21;23:08:00;1;644;11665;0;2;0;10470;0;0;0;0;3;0;6531;0;0;0;0;4;0;9023;0;0;0;0;5;0;20792;0;0;0;0;0;0;6;0;15120;0;0;0;0;0;0;7;0;11327;0;0;0;0;8;0;11356;0;0;0;0;9;0;6106;0;0;0;0
02.05.21;23:00:00;1;612;11584;0;2;0;10470;0;0;0;0;3;0;6531;0;0;0;0;4;0;9023;0;0;0;0;5;0;20792;0;0;0;0;0;0;6;0;15120;0;0;0;0;0;0;7;0;11327;0;0;0;0;8;0;11356;0;0;0;0;9;0;6106;0;0;0;0
02.05.21;22:55:00;1;628;11531;0;2;0;10470;0;0;0;0;3;0;6531;0;0;0;0;4;0;9023;0;0;0;0;5;0;20792;2;0;0;0;0;0;6;0;15120;2;0;0;0;0;0;7;0;11327;0;0;0;0;8;0;11356;0;0;0;0;9;0;6106;0;0;0;0
02.05.21;22:50:00;1;586;11479;0;2;0;10470;0;0;0;0;3;0;6531;0;0;0;0;4;0;9023;0;0;0;0;5;0;20792;2;0;0;0;0;0;6;0;15120;2;0;0;0;0;0;7;0;11327;0;0;0;0;8;0;11356;0;0;0;0;9;0;6106;0;0;0;0
02.05.21;22:45:00;1;610;11429;0;2;0;10470;0;0;0;0;3;0;6531;0;0;0;0;4;0;9023;0;0;0;0;5;0;20792;2;0;0;0;0;0;6;0;15120;2;0;0;0;0;0;7;0;11327;0;0;0;0;8;0;11356;0;0;0;0;9;0;6106;0;0;0;0
02.05.21;22:40:00;1;630;11379;0;2;0;10470;0;0;0;0;3;0;6531;0;0;0;0;4;0;9023;0;0;0;0;5;0;20792;2;0;0;0;0;0;6;0;15120;2;0;0;0;0;0;7;0;11327;0;0;0;0;8;0;11356;0;0;0;0;9;0;6106;0;0;0;0
02.05.21;22:35:00;1;663;11326;0;2;0;10470;0;0;0;0;3;0;6531;0;0;0;0;4;0;9023;0;0;0;0;5;0;20792;2;0;0;0;0;0;6;0;15120;2;0;0;0;0;0;7;0;11327;0;0;0;0;8;0;11356;0;0;0;0;9;0;6106;0;0;0;0
02.05.21;22:30:00;1;601;11274;0;2;0;10470;0;0;0;0;3;0;6531;0;0;0;0;4;0;9023;0;0;0;0;5;0;20792;2;0;0;0;0;0;6;0;15120;2;0;0;0;0;0;7;0;11327;0;0;0;0;8;0;11356;0;0;0;0;9;0;6106;0;0;0;0
02.05.21;22:25:00;1;537;11223;0;2;0;10470;0;0;0;0;3;0;6531;0;0;0;0;4;0;9023;0;0;0;0;5;0;20792;2;0;0;0;0;0;6;0;15120;2;0;0;0;0;0;7;0;11327;0;0;0;0;8;0;11356;0;0;0;0;9;0;6106;0;0;0;0
02.05.21;22:20:00;1;1415;11164;0;2;0;10470;0;0;0;0;3;0;6531;0;0;0;0;4;0;9023;0;0;0;0;5;0;20792;2;0;0;0;0;0;6;0;15120;2;0;0;0;0;0;7;0;11327;0;0;0;0;8;0;11356;0;0;0;0;9;0;6106;0;0;0;0
02.05.21;22:15:00;1;1467;11046;0;2;0;10470;0;0;0;0;3;0;6531;0;0;0;0;4;0;9023;0;0;0;0;5;0;20792;2;0;0;0;0;0;6;0;15120;2;0;0;0;0;0;7;0;11327;0;0;0;0;8;0;11356;0;0;0;0;9;0;6106;0;0;0;0
02.05.21;22:10:00;1;412;10943;0;2;0;10470;0;0;0;0;3;0;6531;0;0;0;0;4;0;9023;0;0;0;0;5;0;20792;2;0;0;0;0;0;6;0;15120;2;0;0;0;0;0;7;0;11327;0;0;0;0;8;0;11356;0;0;0;0;9;0;6106;0;0;0;0
02.05.21;22:05:00;1;478;10908;0;2;0;10470;0;0;0;0;3;0;6531;0;0;0;0;4;0;9023;0;0;0;0;5;0;20792;2;0;0;0;0;0;6;0;15120;2;0;0;0;0;0;7;0;11327;0;0;0;0;8;0;11356;0;0;0;0;9;0;6106;0;0;0;0
02.05.21;22:00:00;1;593;10866;0;2;0;10470;0;0;0;0;3;0;6531;0;0;0;0;4;0;9023;0;0;0;0;5;0;20792;2;0;0;0;0;0;6;0;15120;2;0;0;0;0;0;7;0;11327;0;0;0;0;8;0;11356;0;0;0;0;9;0;6106;0;0;0;0
02.05.21;21:55:00;1;511;10819;0;2;0;10470;0;0;0;0;3;0;6531;0;0;0;0;4;0;9023;0;0;0;0;5;0;20792;2;0;0;0;0;0;6;0;15120;2;0;0;0;0;0;7;0;11327;0;0;0;0;8;0;11356;0;0;0;0;9;0;6106;0;0;0;0
02.05.21;21:50:00;1;438;10778;0;2;0;10470;0;0;0;0;3;0;6531;0;0;0;0;4;0;9023;0;0;0;0;5;0;20792;2;0;0;0;0;0;6;0;15120;2;0;0;0;0;0;7;0;11327;0;0;0;0;8;0;11356;0;0;0;0;9;0;6106;0;0;0;0
02.05.21;21:45:00;1;435;10741;0;2;0;10470;0;0;0;0;3;0;6531;0;0;0;0;4;0;9023;0;0;0;0;5;0;20792;2;0;0;0;0;0;6;0;15120;2;0;0;0;0;0;7;0;11327;0;0;0;0;8;0;11356;0;0;0;0;9;0;6106;0;0;0;0
02.05.21;21:40:00;1;411;10706;0;2;0;10470;0;0;0;0;3;0;6531;0;0;0;0;4;0;9023;0;0;0;0;5;0;20792;2;0;0;0;0;0;6;0;15120;2;0;0;0;0;0;7;0;11327;0;0;0;0;8;0;11356;0;0;0;0;9;0;6106;0;0;0;0
02.05.21;21:35:00;1;509;10672;0;2;0;10470;0;0;0;0;3;0;6531;0;0;0;0;4;0;9023;0;0;0;0;5;0;20792;2;0;0;0;0;0;6;0;15120;2;0;0;0;0;0;7;0;11327;0;0;0;0;8;0;11356;0;0;0;0;9;0;6106;0;0;0;0
02.05.21;21:30:00;1;2385;10583;0;2;0;10470;0;0;0;0;3;0;6531;0;0;0;0;4;0;9023;0;0;0;0;5;0;20792;2;0;0;0;0;0;6;0;15120;2;0;0;0;0;0;7;0;11327;0;0;0;0;8;0;11356;0;0;0;0;9;0;6106;0;0;0;0
02.05.21;21:25:00;1;2333;10384;0;2;0;10470;0;0;0;0;3;0;6531;0;0;0;0;4;0;9023;0;0;0;0;5;0;20792;2;0;0;0;0;0;6;0;15120;2;0;0;0;0;0;7;0;11327;0;0;0;0;8;0;11356;0;0;0;0;9;0;6106;0;0;0;0
02.05.21;21:20:00;1;2263;10190;0;2;0;10470;0;0;0;0;3;0;6531;0;0;0;0;4;0;9023;0;0;0;0;5;0;20792;2;0;0;0;0;0;6;0;15120;2;0;0;0;0;0;7;0;11327;0;0;0;0;8;0;11356;0;0;0;0;9;0;6106;0;0;0;0
02.05.21;21:15:00;1;2251;10000;0;2;0;10470;0;0;0;0;3;0;6531;0;0;0;0;4;0;9023;0;0;0;0;5;0;20792;2;0;0;0;0;0;6;0;15120;2;0;0;0;0;0;7;0;11327;0;0;0;0;8;0;11356;0;0;0;0;9;0;6106;0;0;0;0
02.05.21;21:10:00;1;427;9869;0;2;0;10470;0;0;0;0;3;0;6531;0;0;0;0;4;0;9023;0;0;0;0;5;0;20792;2;0;0;0;0;0;6;0;15120;2;0;0;0;0;0;7;0;11327;0;0;0;0;8;0;11356;0;0;0;0;9;0;6106;0;0;0;0
02.05.21;21:05:00;1;427;9833;0;2;0;10470;0;0;0;0;3;0;6531;0;0;0;0;4;0;9023;0;0;0;0;5;0;20792;2;0;0;0;0;0;6;0;15120;2;0;0;0;0;0;7;0;11327;0;0;0;0;8;0;11356;0;0;0;0;9;0;6106;0;0;0;0
02.05.21;21:00:00;1;382;9789;0;2;0;10470;0;0;0;0;3;0;6531;0;0;0;0;4;0;9023;0;0;0;0;5;0;20792;2;0;0;0;0;0;6;0;15120;2;0;0;0;0;0;7;0;11327;0;0;0;0;8;0;11356;0;0;0;0;9;0;6106;0;0;0;0
02.05.21;20:55:00;1;414;9757;0;2;0;10470;0;0;0;0;3;0;6531;0;0;0;0;4;0;9023;0;0;0;0;5;0;20792;2;0;0;0;0;0;6;0;15120;2;0;0;0;0;0;7;0;11327;0;0;0;0;8;0;11356;0;0;0;0;9;0;6106;0;0;0;0
02.05.21;20:50:00;1;420;9723;0;2;0;10470;0;0;35;2;3;0;6531;0;0;150;11;4;0;9023;0;0;0;0;5;0;20792;2;0;0;0;0;0;6;0;15120;2;0;0;0;0;0;7;0;11327;0;0;0;0;8;0;11356;0;0;0;0;9;0;6106;0;0;0;0
02.05.21;20:45:00;1;1017;9683;0;2;0;10470;6;0;278;18;3;0;6531;6;0;305;20;4;0;9023;0;0;0;0;5;0;20792;2;0;0;0;0;0;6;0;15120;2;0;0;0;0;0;7;0;11327;0;0;0;0;8;0;11356;0;0;0;0;9;0;6106;0;0;0;0
02.05.21;20:40:00;1;2458;9573;0;2;0;10470;6;0;325;18;3;0;6531;6;0;391;20;4;0;9023;2;0;84;16;5;0;20792;2;0;0;32;32;4;6;0;15120;2;0;0;0;0;0;7;0;11327;0;0;0;0;8;0;11356;0;0;0;0;9;0;6106;0;0;0;0
02.05.21;20:35:00;1;2446;9365;0;2;0;10470;6;0;361;18;3;0;6531;6;2;429;21;4;0;9023;1;0;127;17;5;0;20792;23;3;3;198;233;28;6;0;15120;2;3;3;157;155;20;7;0;11327;0;0;162;12;8;0;11356;0;0;214;16;9;0;6106;0;0;227;12
02.05.21;20:30:00;1;2067;9163;0;2;0;10470;6;0;391;18;3;0;6531;4;4;450;21;4;0;9023;1;0;187;17;5;6;20792;23;6;6;328;542;28;6;0;15120;23;4;4;388;379;26;7;0;11327;6;0;358;21;8;0;11356;6;0;363;20;9;0;6106;6;0;373;16
02.05.21;20:25:00;1;483;9015;0;2;2;10470;6;8;403;19;3;0;6531;3;6;498;21;4;0;9023;1;0;203;18;5;58;20792;4;45;0;319;509;29;6;22;15120;1;1;13;554;534;27;7;0;11327;4;0;432;21;8;0;11356;6;0;447;21;9;0;6106;6;2;461;16
02.05.21;20:20:00;1;475;8976;0;2;4;10470;6;9;415;19;3;1;6531;6;6;503;21;4;0;9023;3;0;200;18;5;75;20787;4;83;0;319;509;29;6;59;15120;4;0;67;500;476;28;7;1;11327;3;7;439;21;8;1;11356;3;6;442;21;9;4;6106;6;6;479;16
02.05.21;20:15:00;1;407;8933;0;2;44;10470;4;75;361;20;3;7;6531;6;19;492;21;4;7;9023;3;7;199;18;5;92;20780;4;87;13;319;509;29;6;73;15120;4;0;78;500;476;28;7;2;11327;6;9;468;21;8;0;11356;6;9;470;21;9;0;6106;6;4;499;16
02.05.21;20:10:00;1;430;8899;0;2;76;10466;4;110;373;20;3;7;6530;6;13;538;22;4;13;9023;3;14;198;18;5;127;20772;4;86;33;319;508;29;6;104;15120;4;0;129;500;476;28;7;25;11327;6;40;421;22;8;25;11356;6;43;423;21;9;0;6106;6;0;562;17
02.05.21;20:05:00;1;456;8862;0;2;115;10460;4;148;376;20;3;51;6530;6;80;496;22;4;49;9021;3;51;198;18;5;166;20761;4;109;58;319;508;29;6;134;15120;4;5;133;500;475;28;7;66;11325;4;96;404;22;8;62;11355;4;98;417;21;9;4;6106;4;9;546;17
02.05.21;20:00:00;1;360;8826;0;2;206;10450;4;243;386;20;3;109;6526;4;151;514;22;4;86;9017;3;89;206;18;5;207;20747;4;137;79;319;508;29;6;168;15120;4;37;105;500;476;28;7;102;11320;4;135;401;22;8;100;11349;4;137;411;21;9;26;6105;3;39;512;17
02.05.21;19:55:00;1;305;8798;0;2;255;10433;4;295;387;21;3;139;6516;4;179;528;22;4;108;9010;5;113;224;18;5;235;20730;4;143;92;319;509;29;6;193;15120;4;50;117;500;476;28;7;126;11311;4;167;407;22;8;132;11341;4;162;396;21;9;27;6103;6;39;556;17
02.05.21;19:50:00;1;306;8772;0;2;291;10412;4;334;401;21;3;152;6505;4;192;496;22;4;121;9001;5;126;227;18;5;238;20710;4;130;80;319;509;29;6;197;15120;4;60;125;500;476;28;7;140;11301;4;170;389;22;8;131;11330;4;171;407;22;9;68;6100;4;95;459;17
02.05.21;19:45:00;1;323;8746;0;2;421;10388;4;467;403;21;3;205;6492;4;245;491;22;4;139;8991;5;145;229;18;5;269;20690;4;145;93;319;508;29;6;222;15120;4;58;112;500;476;28;7;151;11289;4;187;400;22;8;151;11319;4;182;401;22;9;76;6095;4;105;454;17
02.05.21;19:40:00;1;426;8718;0;2;492;10352;4;539;408;21;3;220;6475;4;268;564;22;4;170;8979;5;177;231;18;5;348;20667;4;213;121;396;509;29;6;170;15120;4;52;89;576;528;27;7;202;11277;4;235;430;22;8;193;11307;4;231;425;22;9;101;6088;4;130;495;18
02.05.21;19:35:00;1;371;8685;0;2;454;10311;4;496;398;21;3;218;6457;4;262;556;22;4;173;8965;5;180;229;18;5;369;20637;4;231;135;403;509;29;6;199;15120;1;84;121;498;477;28;7;218;11260;4;257;467;22;8;220;11290;4;259;464;22;9;114;6080;4;144;497;18
02.05.21;19:30:00;1;543;8655;0;2;319;10274;4;360;394;20;3;190;6439;4;231;510;22;4;210;8951;5;219;233;19;5;458;20607;4;305;195;406;560;29;6;293;15107;4;118;164;456;438;28;7;239;11241;4;281;455;22;8;234;11272;4;278;459;22;9;124;6070;4;155;513;18
02.05.21;19:25:00;1;360;8611;0;2;407;10247;4;454;400;21;3;251;6423;4;293;501;22;4;289;8934;5;302;238;19;5;550;20567;4;349;212;407;527;30;6;360;15082;4;158;190;456;438;28;7;327;11222;4;375;481;22;8;333;11253;4;381;481;22;9;182;6060;4;213;506;18
02.05.21;19:20:00;1;557;8578;0;2;436;10213;4;482;404;20;3;233;6402;4;273;457;22;4;254;8909;5;264;243;19;5;426;20522;4;268;172;369;509;30;6;306;15052;4;144;183;456;438;28;7;293;11194;4;340;468;22;8;293;11225;4;335;466;22;9;159;6045;4;191;508;17
02.05.21;19:15:00;1;821;8528;0;2;210;10177;4;245;370;20;3;81;6383;4;101;497;22;4;107;8888;5;111;212;19;5;231;20488;4;119;71;319;508;30;6;179;15028;4;50;119;456;438;28;7;120;11170;4;153;396;22;8;119;11200;4;153;390;22;9;58;6032;4;77;451;17
02.05.21;19:10:00;1;824;8459;0;2;43;10159;4;65;387;20;3;5;6376;6;11;531;22;4;21;8879;3;22;200;19;5;130;20470;4;96;34;319;509;30;6;100;15014;4;3;91;456;438;28;7;8;11160;3;17;458;22;8;10;11190;4;20;458;22;9;2;6027;6;5;530;17
02.05.21;19:05:00;1;831;8390;0;2;34;10156;6;56;394;20;3;2;6376;4;7;520;22;4;11;8877;3;11;199;19;5;145;20459;4;87;36;319;508;30;6;111;15005;4;16;105;456;438;28;7;8;11159;6;16;490;22;8;7;11189;6;14;492;22;9;0;6027;6;5;526;18
02.05.21;19:00:00;1;831;8320;0;2;183;10152;4;222;384;21;3;103;6375;4;143;514;23;4;140;8876;5;146;225;19;5;371;20444;4;232;144;362;509;30;6;267;14995;4;109;150;456;438;28;7;166;11158;4;213;444;23;8;177;11188;4;213;451;22;9;77;6027;4;102;499;18
02.05.21;18:55:00;1;809;8250;0;2;114;10137;4;150;369;21;3;61;6367;4;99;466;23;4;69;8865;3;72;198;19;5;240;20414;4;183;118;319;508;30;6;182;14972;4;63;123;456;438;28;7;94;11144;4;137;448;23;8;92;11174;4;139;451;22;9;8;6021;6;13;554;18
02.05.21;18:50:00;1;787;8182;0;2;133;10128;4;171;369;21;3;77;6362;4;110;458;23;4;95;8859;3;99;213;20;5;277;20394;4;202;140;319;508;30;6;211;14957;4;110;169;456;438;28;7;116;11136;4;156;443;23;8;114;11166;4;154;460;23;9;45;6020;6;62;495;18
02.05.21;18:45:00;1;811;8116;0;2;135;10117;4;170;368;21;3;18;6355;3;24;547;23;4;89;8851;5;92;210;20;5;264;20370;4;169;105;319;508;30;6;209;14939;4;90;158;456;438;28;7;91;11127;4;143;474;23;8;108;11157;4;149;464;23;9;8;6016;6;13;557;18
02.05.21;18:40:00;1;800;8047;0;2;73;10106;4;109;366;21;3;6;6353;6;11;537;23;4;34;8844;3;35;198;20;5;182;20350;4;97;51;319;508;30;6;140;14923;4;34;127;456;438;28;7;46;11119;4;83;425;23;8;49;11148;4;86;428;23;9;5;6015;6;8;541;18
02.05.21;18:35:00;1;833;7979;0;2;94;10099;4;127;368;22;3;22;6353;6;37;521;24;4;50;8841;3;52;198;20;5;219;20334;4;131;80;319;508;30;6;164;14912;4;37;101;456;438;28;7;61;11116;4;101;424;23;8;55;11144;4;95;435;23;9;9;6015;6;11;538;19
02.05.21;18:30:00;1;826;7909;0;2;180;10091;4;218;377;22;3;102;6351;4;142;500;24;4;139;8837;5;145;224;20;5;408;20315;4;291;166;398;509;30;6;278;14897;4;141;195;456;438;28;7;148;11111;4;183;459;23;8;152;11139;4;187;446;23;9;72;6014;6;95;502;19
02.05.21;18:25:00;1;811;7840;0;2;206;10077;4;245;379;22;3;118;6342;4;162;514;24;4;161;8825;5;168;224;21;5;413;20280;4;211;136;370;509;30;6;298;14874;4;163;212;456;438;28;7;170;11099;4;199;475;23;8;169;11127;4;207;467;23;9;97;6009;4;123;465;20
02.05.21;18:20:00;1;836;7772;0;2;149;10059;4;185;370;23;3;85;6333;4;125;478;24;4;98;8812;5;102;212;21;5;315;20247;4;202;130;349;512;30;6;230;14850;4;90;140;456;438;28;7;93;11084;4;140;459;23;8;111;11113;4;147;428;23;9;20;6001;3;29;536;19
02.05.21;18:15:00;1;908;7701;0;2;264;10047;4;308;398;23;3;159;6325;4;201;501;25;4;212;8803;5;221;225;21;5;627;20221;4;386;279;410;630;30;6;439;14830;4;170;230;529;536;28;7;220;11077;4;264;471;24;8;220;11104;4;266;454;23;9;119;5999;4;150;502;20
02.05.21;18:10:00;1;841;7625;0;2;623;10025;4;680;402;23;3;387;6312;4;439;510;25;4;544;8785;5;566;240;21;5;1278;20163;4;724;556;423;676;30;6;889;14789;4;384;478;521;560;28;7;606;11058;4;652;472;24;8;608;11085;4;655;474;23;9;324;5989;4;367;521;21
02.05.21;18:05:00;1;871;7555;0;2;444;9973;4;490;393;23;3;276;6280;4;326;503;25;4;368;8741;5;383;235;21;5;804;20056;4;441;306;414;581;30;6;551;14715;4;220;286;455;511;28;7;422;11008;4;457;471;24;8;434;11035;4;475;456;23;9;238;5962;4;275;511;20
02.05.21;18:00:00;1;868;7481;0;2;250;9937;4;293;385;23;3;150;6257;4;194;504;25;4;194;8710;5;203;226;21;5;513;19994;4;311;207;400;563;31;6;347;14673;4;138;182;456;482;29;7;228;10973;4;264;456;24;8;222;10999;4;261;456;23;9;119;5942;4;151;509;21
02.05.21;17:55:00;1;868;7408;0;2;297;9916;4;342;392;24;3;183;6245;4;221;501;25;4;245;8694;5;255;225;22;5;666;19950;4;425;310;407;641;31;6;444;14644;4;194;285;456;547;29;7;299;10954;4;341;471;24;8;299;10980;4;341;478;24;9;164;5932;4;198;505;21
02.05.21;17:50:00;1;858;7335;0;2;360;9891;4;407;398;24;3;221;6229;4;269;501;26;4;305;8673;5;318;232;22;5;795;19894;4;465;347;411;641;31;6;544;14606;4;230;300;492;542;29;7;335;10929;4;386;473;24;8;346;10956;4;386;472;24;9;186;5919;4;221;498;21
02.05.21;17:45:00;1;592;7263;0;2;284;9861;4;325;378;25;3;173;6211;4;215;508;26;4;229;8648;5;238;229;22;5;629;19828;4;353;261;407;635;31;6;427;14561;4;182;269;456;553;29;7;257;10902;4;304;459;24;8;263;10927;4;304;466;24;9;146;5903;4;178;510;21
02.05.21;17:40:00;1;427;7219;0;2;328;9837;4;373;388;25;3;200;6197;4;242;506;26;4;278;8629;5;290;230;22;5;781;19776;4;454;337;412;651;31;6;558;14526;4;226;287;555;543;29;7;321;10880;4;360;460;24;8;318;10905;4;358;456;24;9;167;5891;4;201;515;22
02.05.21;17:35:00;1;511;7182;0;2;551;9810;4;604;402;26;3;342;6180;4;391;508;27;4;481;8606;5;501;235;23;5;1224;19708;4;703;546;418;666;31;6;904;14477;4;419;458;594;555;29;7;560;10854;4;605;466;24;8;558;10879;4;608;466;24;9;297;5877;4;341;516;22
02.05.21;17:30:00;1;516;7137;0;2;813;9764;4;874;405;26;3;511;6152;4;566;514;27;4;714;8566;5;744;239;23;5;1678;19603;4;960;739;424;682;31;6;1241;14399;4;609;637;599;563;29;7;836;10807;4;903;473;25;8;840;10833;4;897;475;24;9;453;5853;4;502;526;22
02.05.21;17:25:00;1;575;7088;0;2;816;9697;4;878;406;27;3;520;6109;4;575;524;27;4;709;8507;5;738;238;23;5;1586;19461;4;902;703;422;689;32;6;1191;14295;4;598;625;595;562;29;7;842;10738;4;896;469;25;8;849;10763;4;906;469;24;9;462;5815;4;511;518;22
02.05.21;17:20:00;1;2434;7017;0;2;664;9630;4;725;404;27;3;417;6066;4;470;510;27;4;591;8448;5;615;237;23;5;1450;19333;4;828;643;420;686;32;6;1075;14198;4;514;556;595;554;29;7;697;10669;4;750;464;25;8;702;10693;4;751;464;24;9;376;5777;4;422;520;23
02.05.21;17:15:00;1;2356;6816;0;2;858;9574;4;924;405;27;3;542;6032;4;599;512;28;4;755;8399;5;786;241;24;5;1839;19210;4;1043;810;421;693;32;6;1352;14108;4;633;668;598;560;29;7;914;10611;4;969;474;25;8;900;10635;4;960;466;25;9;484;5746;4;534;519;23
02.05.21;17:10:00;1;381;6642;0;2;1257;9503;4;1341;412;28;3;796;5987;4;863;520;28;4;1093;8337;5;1138;243;24;5;2459;19051;4;1376;1100;426;696;32;6;1822;13991;4;927;943;607;575;29;7;1267;10535;4;1344;481;25;8;694;10516;0;736;246;12;9;678;5705;4;739;532;23
02.05.21;17:05:00;1;321;6611;0;2;1585;9399;4;1680;416;28;3;1004;5921;4;1081;529;28;4;1403;8246;5;1462;243;24;5;2961;18840;4;1672;1320;429;701;32;6;2210;13836;4;1101;1119;606;574;29;7;1684;10430;4;1777;483;25;8;1701;10461;4;1782;484;24;9;906;5650;4;977;529;23
02.05.21;17:00:00;1;295;6585;0;2;1109;9266;4;1182;412;28;3;706;5836;4;771;529;28;4;965;8128;5;1005;240;24;5;2166;18611;4;1219;962;429;696;32;6;1613;13664;4;828;852;603;575;29;7;1144;10291;4;1215;479;25;8;1150;10320;4;1219;478;25;9;624;5575;4;682;531;23
02.05.21;16:55:00;1;350;6560;0;2;835;9173;4;898;403;28;3;531;5777;4;590;514;28;4;721;8047;5;750;241;24;5;1630;18433;4;945;725;422;676;32;6;1229;13531;4;597;643;598;565;29;7;937;10196;4;995;482;25;8;950;10225;4;1006;474;25;9;516;5523;4;568;516;23
02.05.21;16:50:00;1;431;6530;0;2;820;9103;4;885;407;28;3;517;5733;4;575;517;28;4;723;7987;5;753;239;24;5;1765;18296;4;1011;784;424;689;32;6;1304;13428;4;653;681;595;566;29;7;823;10118;4;880;476;25;8;821;10146;4;877;472;25;9;440;5480;4;489;526;23
02.05.21;16:45:00;1;376;6495;0;2;1104;9035;4;1179;403;29;3;710;5690;4;772;524;29;4;966;7927;5;1007;245;24;5;2197;18147;4;1246;963;426;706;32;6;1636;13318;4;825;855;600;567;30;7;1234;10049;4;1300;482;25;8;1235;10077;4;1305;477;25;9;672;5443;4;732;527;24
02.05.21;16:40:00;1;328;6463;0;2;900;8945;4;969;403;30;3;570;5632;4;629;513;29;4;771;7848;5;803;237;25;5;1798;17971;4;1022;798;420;678;32;6;1338;13186;4;629;667;598;563;29;7;920;9949;4;984;463;26;8;922;9978;4;983;468;25;9;495;5388;4;548;517;24
02.05.21;16:35:00;1;319;6436;0;2;2301;8870;4;2425;406;31;3;1407;5585;4;1500;524;29;4;1884;7784;5;1962;239;25;5;3743;17818;4;2102;1657;427;685;32;6;2678;13073;4;1347;1368;606;586;29;7;1847;9872;4;1933;486;25;8;1812;9900;4;1907;486;25;9;1008;5347;4;1080;523;25
02.05.21;16:30:00;1;311;6408;0;2;2766;8681;4;2903;401;30;3;1673;5469;4;1776;538;29;4;2335;7627;5;2432;247;24;5;4612;17518;4;2625;2031;430;686;32;6;3250;12849;4;1644;1628;608;581;29;7;2940;9719;4;3086;494;25;8;2853;9748;4;2996;485;25;9;1543;5262;4;1640;534;25
02.05.21;16:25:00;1;324;6382;0;2;2387;8459;4;2515;414;29;3;1528;5334;4;1624;530;29;4;2052;7440;5;2137;246;24;5;4109;17140;4;2322;1836;429;693;32;6;3038;12566;4;1531;1508;610;586;29;7;2811;9477;4;2944;490;25;8;2834;9512;4;2974;491;24;9;1556;5134;4;1653;543;24
02.05.21;16:20:00;1;339;6354;0;2;1632;8257;4;1724;414;29;3;1050;5206;4;1129;533;28;4;1423;7269;5;1482;247;23;5;3074;16808;4;1759;1383;431;699;32;6;2307;12316;4;1131;1145;611;579;29;7;1875;9246;4;1966;491;25;8;1590;9281;4;1669;405;20;9;1017;5007;4;1093;540;24
02.05.21;16:15:00;1;290;6326;0;2;1649;8120;4;1745;417;29;3;1048;5118;4;1127;533;28;4;1430;7149;5;1490;244;23;5;3163;16555;4;1780;1410;432;711;31;6;2330;12127;4;1162;1174;611;578;29;7;1790;9088;4;1890;493;25;8;1785;9121;4;1876;485;24;9;965;4921;4;1036;534;24
02.05.21;16:10:00;1;285;6303;0;2;1746;7982;4;1844;419;28;3;1123;5030;4;1205;528;28;4;1518;7029;5;1581;246;23;5;3269;16284;4;1856;1443;434;714;31;6;2441;11927;4;1219;1237;614;579;29;7;1873;8938;4;1973;493;24;8;1881;8971;4;1974;487;24;9;1020;4840;4;1095;538;23
02.05.21;16:05:00;1;321;6278;0;2;1592;7836;4;1686;418;28;3;1015;4936;4;1091;533;28;4;1377;6902;5;1434;244;23;5;3004;16013;4;1690;1323;437;704;31;6;2233;11725;4;1119;1143;613;582;29;7;1702;8783;4;1794;488;24;8;1694;8816;4;1779;490;24;9;916;4755;4;991;539;23
02.05.21;16:00:00;1;279;6252;0;2;1890;7701;4;1991;420;27;3;1219;4850;4;1302;530;27;4;1651;6786;5;1720;248;22;5;3480;15753;4;1979;1564;436;708;31;6;2585;11533;4;1282;1273;617;585;29;7;1962;8638;4;2059;497;24;8;1990;8672;4;2087;486;24;9;1133;4678;4;1214;546;23
02.05.21;15:55:00;1;328;6228;0;2;1285;7541;4;1361;416;27;3;821;4747;4;889;524;27;4;1126;6646;5;1173;243;22;5;2486;15466;4;1412;1105;437;710;31;6;1861;11317;4;908;913;611;571;29;7;1402;8474;4;1477;497;24;8;1420;8506;4;1496;483;24;9;770;4583;4;834;545;22
02.05.21;15:50:00;1;330;6199;0;2;1211;7433;4;1286;413;26;3;773;4678;4;839;528;27;4;1073;6551;5;1118;244;22;5;2476;15259;4;1408;1101;433;703;31;6;1842;11163;4;924;931;608;582;29;7;1245;8357;4;1319;488;24;8;1256;8388;4;1326;484;24;9;681;4519;4;743;541;22
02.05.21;15:45:00;1;330;6172;0;2;1220;7332;4;1295;409;26;3;779;4613;4;844;530;27;4;1096;6461;5;1141;242;22;5;2605;15054;4;1405;1118;436;703;31;6;1923;11010;4;944;963;612;579;29;7;1218;8253;4;1287;496;24;8;1216;8283;4;1289;485;24;9;655;4462;4;717;540;22
02.05.21;15:40:00;1;320;6144;0;2;1342;7230;4;1421;413;26;3;862;4548;4;932;529;27;4;1185;6370;5;1234;248;22;5;2622;14833;4;1493;1159;435;704;31;6;1960;10848;4;973;988;615;579;29;7;1490;8152;4;1573;493;24;8;1502;8182;4;1583;496;24;9;815;4408;4;881;547;22
02.05.21;15:35:00;1;293;6117;0;2;897;7119;4;959;411;26;3;568;4477;4;626;528;27;4;776;6272;5;808;243;22;5;1713;14619;4;975;753;430;689;31;6;1268;10688;4;623;648;608;571;29;7;880;8028;4;947;475;24;8;914;8059;4;970;483;24;9;497;4341;4;549;529;22
02.05.21;15:30:00;1;319;6093;0;2;941;7042;4;1007;418;26;3;595;4428;4;656;529;27;4;836;6205;5;871;247;22;5;1912;14472;4;1075;847;434;696;31;6;1411;10579;4;710;744;609;572;29;7;962;7952;4;1024;484;24;8;971;7978;4;1027;483;24;9;525;4297;4;577;530;22
02.05.21;15:25:00;1;334;6065;0;2;773;6963;4;830;406;26;3;490;4378;4;547;512;27;4;673;6135;5;702;242;22;5;1527;14314;4;864;682;421;694;31;6;1139;10462;4;573;593;606;566;29;7;742;7871;4;799;475;24;8;761;7897;4;818;485;24;9;415;4253;4;461;515;22
02.05.21;15:20:00;1;311;6037;0;2;538;6898;4;589;404;26;3;335;4337;4;382;504;27;4;460;6079;5;480;238;22;5;1132;14196;4;650;500;423;682;31;6;834;10373;4;425;491;607;560;29;7;442;7809;4;479;470;25;8;437;7834;4;486;475;24;9;235;4218;4;273;514;22
02.05.21;15:15:00;1;295;6011;0;2;594;6854;4;649;408;26;3;377;4310;4;424;514;27;4;519;6041;5;541;242;22;5;1203;14100;4;705;534;423;662;31;6;908;10304;4;435;492;595;563;29;7;681;7772;4;737;474;25;8;687;7797;4;741;470;24;9;365;4199;4;415;530;23
02.05.21;15:10:00;1;267;5986;0;2;662;6806;4;719;409;27;3;413;4279;4;466;524;27;4;585;5999;5;609;241;23;5;1430;14002;4;816;632;429;687;31;6;1044;10230;4;487;536;600;561;29;7;757;7718;4;805;482;25;8;748;7742;4;804;484;24;9;400;4170;4;445;519;23
02.05.21;15:05:00;1;280;5964;0;2;1414;6752;4;1502;422;28;3;879;4245;4;952;538;28;4;1266;5951;5;1319;244;23;5;2951;13883;4;1653;1320;442;715;31;6;2113;10143;4;1065;1068;613;586;29;7;1423;7655;4;1507;497;25;8;1385;7680;4;1465;488;24;9;732;4137;4;794;522;24